Location: Unspecified
(0.0000°N, 0.0000°E)
Time: 03:35:29
(UTC+02:00)

JASON 3 - Pass Details

Date: 06 October 2021
Orbit: 1332 x 1343 km, 66.0° (Epoch: 24 October)

Event Time Altitude Azimuth Distance (km) Brightness Sun altitude
Rises 07:13:25 0° 199° (SSW) 4,344 ? -8.6°
Reaches altitude 10° 07:16:14 10° 199° (SSW) 3,372 ? -7.9°
Maximum altitude 07:24:26 86° 112° (ESE) 1,341 ? -5.9°
Drops below altitude 10° 07:32:38 10° 21° (NNE) 3,370 ? -3.9°
Sets 07:35:27 0° 21° (NNE) 4,342 ? -3.2°
